Location: Bergnershof
(48.9468°N, 10.9431°E)
Time: 11:38:52
(UTC+00:00)

ASTEX 1 - Pass Details

Date: 03 March 2021
Orbit: 720 x 743 km, 92.7° (Epoch: 12 April)

Event Time Altitude Azimuth Distance (km) Brightness Sun altitude
Rises 19:19:41 0° 5° (N) 3,151 6.8 -23.0°
Reaches altitude 10° 19:21:59 10° 5° (N) 2,224 6.0 -23.4°
Maximum altitude 19:26:54 84° 278° (W) 732 3.3 -24.1°
Enters shadow 19:30:13 21° 191° (S) 1,595 5.0 -24.6°
